Hibbing, MN

11:01 AM CDT on September 26, 2017 (GMT -0500)
Chisholm-hibbing

Weather History for KHIB - September, 2013

Change the Weather History Date:

Tuesday, September 17, 2013

  Actual Average Record
Temperature  
Mean Temperature 50 °F 53 °F  
Max Temperature 69 °F 65 °F 85 °F (1948)
Min Temperature 30 °F 39 °F 26 °F (2011)
Degree Days  
Heating Degree Days 16 13  
Month to date heating degree days 165  
Cooling Degree Days 0 0  
Month to date cooling degree days 7  
Moisture  
Dew Point 39 °F    
Average Humidity 80    
Maximum Humidity 100    
Minimum Humidity 49    
Precipitation  
Precipitation 0.00 in 0.11 in 1.88 in (1955)
Month to date precipitation 1.79  
Sea Level Pressure  
Sea Level Pressure 30.16 in    
Wind  
Wind Speed 2 mph (South)    
Max Wind Speed 13 mph    
Max Gust Speed 23 mph    
Visibility 6 miles    
Events Fog    
T = Trace of Precipitation, MM = Missing Value Source: NWS Daily Summary

Daily Weather History Graph

Daily Weather History Graph

Search for Another Location

Airport or City:

Trip Planner

Search our weather history database for the weather conditions in past years. The results will help you decide how hot, cold, wet, or windy it might be!

Date:

Astronomy

Sep. 17, 2013 Rise Set
Actual Time 6:51 AM CDT 7:18 PM CDT
Civil Twilight 6:21 AM CDT 7:49 PM CDT
Nautical Twilight 5:44 AM CDT 8:25 PM CDT
Astronomical Twilight 5:06 AM CDT 9:03 PM CDT
Moon 6:09 PM CDT (9/17) 4:41 AM CDT (9/17)
Length of Visible Light 13h 28m
Length of Day
12h 26m
Waxing Gibbous, 96% of the Moon is Illuminated
Sep 17
Waxing Gibbous
Sep 19
Full
Sep 26
Last Quarter
Oct 4
New
Oct 11
First Quarter

Hourly Weather History & Observations

Time (CDT) Temp. Windchill Dew Point Humidity Pressure Visibility Wind Dir Wind Speed Gust Speed Precip Events Conditions
12:01 AM 39.2 °F - 37.4 °F 93% 30.25 in 0.5 mi Calm Calm - N/A Fog Fog
12:16 AM 37.4 °F - 37.4 °F 100% 30.24 in 0.2 mi Calm Calm - N/A Fog Fog
12:23 AM 37.4 °F - 35.6 °F 93% 30.24 in 0.5 mi Calm Calm - N/A Fog Fog
12:39 AM 37.4 °F - 35.6 °F 93% 30.24 in 0.5 mi Calm Calm - N/A Fog Fog
12:53 AM 37.0 °F 34.5 °F 35.1 °F 93% 30.27 in 0.5 mi SSE 3.5 mph - N/A Fog Fog
1:11 AM 37.4 °F - 35.6 °F 93% 30.24 in 1.2 mi Calm Calm - N/A   Partly Cloudy
1:21 AM 35.6 °F - 33.8 °F 93% 30.24 in 0.5 mi Calm Calm - N/A Fog Fog
1:53 AM 33.1 °F - 32.0 °F 96% 30.27 in 0.5 mi Calm Calm - N/A Fog Fog
2:02 AM 33.8 °F - 32.0 °F 93% 30.24 in 2.0 mi Calm Calm - N/A   Clear
2:13 AM 33.8 °F - 32.0 °F 93% 30.24 in 0.8 mi Calm Calm - N/A   Clear
2:44 AM 33.8 °F - 30.2 °F 87% 30.23 in 1.5 mi Calm Calm - N/A   Clear
2:53 AM 33.1 °F - 30.9 °F 92% 30.26 in 1.2 mi Calm Calm - N/A   Scattered Clouds
3:00 AM 33.8 °F - 30.2 °F 87% 30.23 in 1.0 mi Calm Calm - N/A   Mist
3:17 AM 32.0 °F - 30.2 °F 93% 30.23 in 0.8 mi Calm Calm - N/A   Mist
3:31 AM 32.0 °F - 30.2 °F 93% 30.23 in 1.0 mi Calm Calm - N/A   Mist
3:40 AM 30.2 °F - 28.4 °F 93% 30.22 in 1.0 mi Calm Calm - N/A   Clear
3:53 AM 32.0 °F - 30.0 °F 92% 30.26 in 0.8 mi Calm Calm - N/A   Clear
4:04 AM 30.2 °F - 28.4 °F 93% 30.22 in 1.0 mi Calm Calm - N/A   Mist
4:19 AM 30.2 °F - 30.2 °F 100% 30.22 in 1.2 mi Calm Calm - N/A   Clear
4:47 AM 30.2 °F - 28.4 °F 93% 30.21 in 3.0 mi Calm Calm - N/A   Clear
4:53 AM 30.9 °F - 28.9 °F 92% 30.24 in 10.0 mi Calm Calm - N/A   Clear
5:53 AM 30.9 °F - 28.9 °F 92% 30.23 in 10.0 mi Calm Calm - N/A   Clear
6:53 AM 30.0 °F - 28.0 °F 92% 30.23 in 10.0 mi Calm Calm - N/A   Clear
7:53 AM 35.1 °F 32.2 °F 32.0 °F 89% 30.23 in 10.0 mi SE 3.5 mph - N/A   Clear
8:53 AM 46.9 °F - 43.0 °F 86% 30.21 in 10.0 mi SSE 4.6 mph - N/A   Scattered Clouds
9:01 AM 46.4 °F 45.2 °F 42.8 °F 87% 30.18 in 10.0 mi South 3.5 mph - N/A   Mostly Cloudy
9:17 AM 50.0 °F - 44.6 °F 82% 30.17 in 10.0 mi South 4.6 mph - N/A   Scattered Clouds
9:53 AM 54.0 °F - 46.0 °F 75% 30.19 in 10.0 mi SSE 8.1 mph - N/A   Clear
10:53 AM 60.1 °F - 46.9 °F 62% 30.16 in 10.0 mi South 9.2 mph - N/A   Scattered Clouds
11:08 AM 60.8 °F - 46.4 °F 59% 30.13 in 10.0 mi South 10.4 mph 18.4 mph N/A   Mostly Cloudy
11:21 AM 62.6 °F - 48.2 °F 59% 30.13 in 10.0 mi South 10.4 mph 19.6 mph N/A   Scattered Clouds
11:53 AM 63.0 °F - 46.9 °F 56% 30.13 in 10.0 mi SSW 12.7 mph 23.0 mph N/A   Clear
12:53 PM 64.9 °F - 48.0 °F 54% 30.11 in 10.0 mi SSW 10.4 mph 20.7 mph N/A   Clear
1:53 PM 66.9 °F - 48.0 °F 51% 30.08 in 10.0 mi South 11.5 mph 21.9 mph N/A   Clear
2:53 PM 68.0 °F - 48.0 °F 49% 30.05 in 10.0 mi South 11.5 mph 23.0 mph N/A   Clear
3:53 PM 69.1 °F - 48.9 °F 49% 30.02 in 10.0 mi SSW 8.1 mph 18.4 mph N/A   Clear
4:53 PM 66.9 °F - 48.9 °F 52% 30.01 in 10.0 mi SSE 8.1 mph - N/A   Overcast
5:53 PM 66.0 °F - 50.0 °F 56% 30.00 in 10.0 mi South 6.9 mph - N/A   Overcast
6:53 PM 64.9 °F - 51.1 °F 61% 29.99 in 10.0 mi South 5.8 mph - N/A   Overcast
7:53 PM 63.0 °F - 50.0 °F 63% 29.99 in 10.0 mi South 5.8 mph - N/A   Overcast
8:53 PM 63.0 °F - 50.0 °F 63% 29.98 in 10.0 mi South 9.2 mph 17.3 mph N/A   Overcast
9:53 PM 62.1 °F - 48.9 °F 62% 29.96 in 10.0 mi South 9.2 mph 18.4 mph N/A   Overcast
10:53 PM 60.1 °F - 50.0 °F 69% 29.96 in 10.0 mi South 8.1 mph - N/A   Overcast
11:53 PM 59.0 °F - 52.0 °F 78% 29.95 in 10.0 mi Variable 6.9 mph 18.4 mph N/A   Overcast